#timestamp,LO_Frequency,Hit,StdDev 
1617991215.3,286046998.1,N
1617991235.2,286047000.8,N
1617991255.0,286046998.7,N
1617991255.9,286046998.7,N
1617991275.7,286047000.8,N
1617991295.6,286047000.4,N
1617991315.4,286047000.6,N
1617991335.3,286047000.2,N
1617991355.1,286047000.3,N
1617991356.0,286047000.3,N
1617991375.8,286047000.4,N
1617991395.7,286047002.2,N
1617991415.5,286047002.7,N
1617991435.4,286047001.9,N
1617991455.2,286047001.8,N
1617991475.0,286047001.9,N
1617991475.9,286047001.9,N
1617991495.8,286047001.8,N
1617991515.6,286047002.3,N
1617991535.4,286047000.6,N
1617991555.3,286047001.9,N
1617991575.1,286047000.1,N
1617991595.9,286047000.9,N
1617991615.7,286047001.1,N
1617991635.5,286047002.8,N
1617991655.4,286047001.9,N
1617991675.2,286047002.3,N
1617991695.0,286047002.3,N
1617991695.9,286047002.3,N
1617991715.8,286047002.3,N
1617991735.6,286047002.7,N
1617991755.5,286047001.6,N
1617991775.3,286046999.7,N
1617991795.1,286047000.2,N
1617991815.9,286047000.3,N
1617991835.7,286047000.4,N
1617991855.5,286047002.4,N
1617991875.4,286047001.6,N
1617991895.2,286047003.3,Y
1617991915.1,286047003.9,P
1617991916.0,286047003.9,P
1617991935.8,286047003.0,N
1617991955.6,286047003.0,Y
1617991975.5,286047000.0,P
1617991995.3,286046999.8,N
1617992015.1,286047000.4,N
1617992035.9,286047000.6,N
1617992055.7,286046999.9,N
1617992075.6,286047000.5,N
1617992095.4,286047001.0,N
1617992115.2,286046998.2,N
1617992135.1,286046999.6,N
1617992136.0,286046999.6,N
1617992155.8,286047000.5,N
1617992175.6,286047005.2,Y
1617992195.5,286047002.9,P
1617992215.3,286047004.0,P
1617992235.2,286047003.1,N
1617992255.9,286047003.7,N
1617992275.7,286047004.0,N
1617992295.6,286047004.4,Y
1617992315.4,286046998.8,P
1617992335.3,286046999.6,N
1617992355.1,286047000.8,N
1617992356.0,286047000.8,N
1617992375.8,286046999.5,N
1617992395.7,286046997.6,N
1617992415.5,286046997.6,N
1617992435.3,286046995.0,N
1617992455.2,286046995.8,N
1617992475.0,286046995.9,N
1617992475.9,286046995.9,N
1617992495.8,286046996.4,N
1617992515.6,286046995.2,N
1617992535.4,286046996.0,N
1617992555.3,286046996.2,N
1617992575.1,286046993.5,N
1617992595.8,286046993.4,N
1617992615.7,286046998.0,N
1617992635.5,286046999.5,N
1617992655.4,286046998.2,N
1617992675.2,286047000.0,N
1617992695.0,286047002.6,N
1617992695.9,286047002.6,N
1617992715.8,286047003.2,N
1617992735.6,286047005.5,N
1617992755.4,286047004.8,N
1617992775.3,286047007.4,N
1617992795.1,286047008.6,N
1617992815.9,286047007.9,N
1617992835.7,286047010.8,N
1617992855.5,286047009.0,N
1617992875.4,286047006.2,N
1617992895.2,286047008.2,N
1617992915.0,286047012.2,N
1617992915.9,286047012.2,N
1617992935.8,286047013.4,N
1617992955.6,286047013.0,N
1617992975.5,286047015.4,N
1617992995.3,286047013.4,N
1617993015.1,286047011.7,N
1617993035.9,286047013.5,N
1617993055.7,286047011.6,N
1617993075.5,286047013.7,N
1617993095.4,286047012.3,N
1617993115.2,286047011.7,N
1617993135.1,286047009.6,N
1617993136.0,286047009.6,N
1617993155.8,286047008.9,N
1617993175.6,286047010.5,N
1617993195.5,286047007.8,N
1617993215.3,286047006.4,N
1617993235.1,286047006.0,N
1617993255.9,286047004.3,N
1617993275.7,286047003.4,N
1617993295.6,286047003.5,N
1617993315.4,286047003.3,N
1617993335.2,286047005.8,N
1617993355.1,286047001.3,N
1617993356.0,286047001.3,N
1617993375.8,286047003.8,N
1617993395.6,286047004.3,N
1617993415.5,286047003.6,N
1617993435.3,286047003.7,N
1617993455.2,286047003.2,N
1617993475.9,286047003.2,N
1617993495.7,286047003.1,N
1617993515.6,286047002.9,N
1617993535.4,286047003.7,N
1617993555.2,286047001.3,N
1617993575.1,286047004.0,N
1617993576.0,286047004.0,N
1617993595.8,286047002.6,N
1617993615.7,286047002.6,N
1617993635.5,286046999.7,N
1617993655.3,286047002.8,N
1617993675.2,286046998.2,N
1617993695.0,286046999.4,N
1617993695.9,286046999.4,N
1617993715.7,286046999.2,N
1617993735.6,286046998.9,N
1617993755.4,286046997.1,N
1617993775.3,286046999.4,N
1617993795.1,286046999.2,N
1617993796.0,286046999.2,N
1617993815.8,286046996.7,N
1617993835.7,286046998.0,N
1617993855.5,286046997.2,N
1617993875.3,286046997.0,N
1617993895.2,286046997.7,N
1617993915.0,286046997.9,N
1617993915.9,286046997.9,N
1617993935.8,286046995.3,N
1617993955.6,286046993.7,N
1617993975.4,286046993.5,N
1617993995.3,286046994.5,N
1617994015.1,286046993.7,N
1617994035.8,286046993.6,N
1617994055.7,286046994.1,N
1617994075.5,286046994.5,N
1617994095.4,286046994.0,N
1617994115.2,286046993.5,N
1617994135.0,286046993.3,N
1617994135.9,286046993.3,N
1617994155.8,286046997.6,N
1617994175.6,286046995.9,N
1617994195.4,286046995.9,N
1617994215.3,286046996.2,N
1617994235.1,286046995.9,N
1617994255.9,286046993.7,Y
1617994275.7,286046996.6,P
1617994295.5,286046997.4,P
1617994315.4,286046995.3,P
1617994335.2,286046997.8,N
1617994355.1,286046995.3,Y
1617994356.0,286046995.3,P
1617994375.8,286047001.2,N
1617994395.6,286047000.0,N
1617994415.5,286047000.4,N
1617994435.3,286046999.9,N
1617994455.1,286047000.0,N
1617994475.9,286047000.6,N
1617994495.7,286047000.7,N
1617994515.6,286047000.5,N
1617994535.4,286047000.2,N
1617994555.2,286046999.7,N
1617994575.1,286047002.5,N
1617994576.0,286047002.5,N
1617994595.8,286047002.7,N
1617994615.6,286046999.7,N
1617994635.5,286046999.8,N
1617994655.3,286047000.2,N
1617994675.2,286047000.0,N
1617994695.9,286047000.8,N
1617994715.7,286046998.6,N
1617994735.6,286046998.4,N
1617994755.4,286046998.6,N
1617994775.2,286046998.5,N
1617994795.1,286046998.9,N
1617994796.0,286046998.9,N
